Flag for U.S.A. Weather past 2 weeks in Washington DC, District of Columbia, U.S.A.

Now
70 °F

Passing clouds.


Feels Like: 76 °F
Forecast: 63 / 83 °F
Wind: 6 mph from Northeast

Location: Reagan National Airport

Current Time: Jul 25, 2014 at 8:20:41 AM

Latest Report: Jul 25, 2014 at 7:52 AM


Visibility: 10 mi

Pressure: 30.06 "Hg

Humidity: 57%

Dew point: 54 °F

Location of Washington DCLocation

Historic Weather in Washington DC — Graph

°F

Washington DC temperature yesterday

Maximum temperature yesterday: 83 °F (at 3:52 PM)
Minimum temperature yesterday: 73 °F (at 11:52 PM)
Average temperature yesterday: 78 °F

Past Weeks' High & Low Weather Summary

 TemperatureHumidityPressure
High93 °F (Jul 13, 3:52 PM)85% (Jul 15, 4:52 AM)30.24 "Hg (Jul 15, 4:52 AM)
Low65 °F (Jul 25, 5:52 AM)31% (Jul 18, 1:52 PM)29.74 "Hg (Jul 15, 3:59 PM)
Average79 °F62%30.04 "Hg
* Reported Jul 10 6:52 AM — Jul 25 6:52 AM, Washington DC, Weather by CustomWeather, © 2014

Note: Actual official high and low records may vary slightly from our data, if they occured in-between our weather recording intervals... More about our weather records

Advertising

Washington DC weather history for previous 24 hours

 ConditionsComfort  
Time TempWeatherWind HumidityBarometerVisibility
6:52 AM
Jul 25
66 °FPassing clouds.8 mph65%30.05 "Hg10 mi
5:52 AM65 °FClear.8 mph63%30.03 "Hg10 mi
4:52 AM67 °FClear.3 mph66%30.01 "Hg10 mi
3:52 AM68 °FClear.6 mph63%29.99 "Hg10 mi
2:52 AM68 °FClear.7 mph65%29.99 "Hg10 mi
1:52 AM70 °FClear.7 mph61%29.98 "Hg10 mi
12:52 AM72 °FPassing clouds.6 mph55%29.97 "Hg10 mi
11:52 PM
Jul 24
73 °FPassing clouds.9 mph53%29.95 "Hg10 mi
10:52 PM75 °FPassing clouds.9 mph52%29.95 "Hg10 mi
9:52 PM75 °FPassing clouds.7 mph52%29.94 "Hg10 mi
8:52 PM76 °FPartly sunny.9 mph50%29.92 "Hg10 mi
7:52 PM78 °FPartly sunny.14 mph46%29.90 "Hg10 mi
6:52 PM79 °FBroken clouds.7 mph52%29.89 "Hg10 mi
5:52 PM79 °FBroken clouds.7 mph50%29.89 "Hg10 mi
4:52 PM79 °FMostly cloudy.7 mph52%29.89 "Hg10 mi
3:52 PM83 °FBroken clouds.7 mph48%29.90 "Hg10 mi
2:52 PM80 °FMore clouds than sun.9 mph51%29.91 "Hg10 mi
1:52 PM81 °FOvercast.8 mph51%29.91 "Hg10 mi
12:52 PM80 °FOvercast.9 mph54%29.92 "Hg10 mi
11:52 AM77 °FPartly sunny.8 mph60%29.92 "Hg10 mi
10:52 AM77 °FOvercast.12 mph62%29.93 "Hg10 mi
9:52 AM76 °FOvercast.9 mph62%29.92 "Hg10 mi
8:52 AM76 °FMostly cloudy.9 mph64%29.90 "Hg10 mi
Weather by CustomWeather, © 2014

See weather overviewHow to use our weather pages